Tracking 27401 objects as of 3-Jun-2023
HD Live streaming from Space Station
objects crossing your sky now

ATLAS 5 CENTAUR DEB

Track ATLAS 5 CENTAUR DEB now!


NORAD ID: 43967
Int'l Code: 2014-055W
Perigee: 7,731.6 km
Apogee: 36,024.1 km
Inclination: 20.6 °
Period: 787.5 minutes
Semi major axis: 28248 km
RCS: Unknown
Launch date: September 17, 2014
Source: United States (US)
Launch site: AIR FORCE EASTERN TEST RANGE (AFETR)

Note: This is SATELLITE DEBRIS
Your satellite tracking list
Your tracking list is empty




NASA's NSSDC Master Catalog

Two Line Element Set (TLE):
1 43967U 14055W   23152.81646886 -.00000091  00000-0  00000-0 0  9995
2 43967  20.6136 247.2171 5007735 343.3520   4.9206  1.82852992 31674
Source of the keplerian elements: AFSPC